星链-6273 (STARLINK-6273 )

导读

STARLINK-6273是美国太空探索技术公司(SpaceX)星链(Starlink)互联网卫星星座的组网卫星,于2023年5月4日发射。它属于星链二代批次卫星,旨在提升全球卫星互联网覆盖能力,为全球偏远、欠发达地区提供高速宽带互联网服务,进一步推动SpaceX星链星座的部署进程。

Basic Information
目录编号:
56395
目录名称:
STARLINK-6273
国际标识:
2023-061X
轨道中心:
EARTH
卫星名称:
星链-6273
卫星全名:
星链-6273 (STARLINK-6273 )
卫星状态:
在轨 (已飞行1219 天)
发射日期:
2023-05-04 UTC
国别 :
美国 (US)
星等 :
--
Orbit Information
数据来源 国际轨道数据 AOE轨道数据
星历时间 2026-09-04T10:07:49+0800
10小时前
查看轨道信息
2026-08-31T06:00:00+0800
4天前
查看轨道信息
半长轴 6861.202km 6861.201km
偏心率 0.0001148 0.0001427
轨道倾角 43.004° 43.006°
近地点辐角 293.981° 289.385°
升交点赤经 259.947° 283.510°
平近点角 66.092° 140.305°
近地点 482.277km 482.084km
远地点 483.853km 484.044km
周期 94.267分钟 94.267分钟
每日圈数 15.27575 15.275753
Detailed Information
固有亮度:
5
最大亮度:
2.5
卫星平台:
Starlink v1.5
覆盖范围:
全球
运营商:
太空探索技术公司
运营商所在国:
美国
制造商(研发单位):
太空探索技术公司
制造商所在国:
美国
使用方式:
暂无
Satellite Introduction
星链(Starlink)计划是由太空探索技术公司(SpaceX)提出的一个巨型低轨卫星互联网星座项目,计划在2019年至2024年间在太空搭建由约1.2万颗卫星组成的“星链”网络,其中1584颗将部署在地球上空550千米处的近地轨道,并从2020年开始工作。该卫星仍在工作。
2D Orbit Map
3D Orbit Map
Orbit Altitude Analysis Chart
Orbit Inclination Analysis Chart
Orbit Comprehensive Analysis Chart
View Comprehensive Chart
Conjunction Data List
Event ID Objects TCA Miss Dist (km) Collision Risk Probability Collision Risk Index (CRI) Action
CDM_260905-101105-639505-992521
2026-09-05T
10:11:15+0000
0.383 km
远距离
2.822592E-4 高风险 0.84
CDM_260903-115605-639506-549122
OBJECT-D (65491)
2026-09-03T
11:56:31+0000
0.717 km
远距离
7.800554E-5 中风险 0.73
CDM_260905-083705-639505-992521
2026-09-05T
08:37:06+0000
1.138 km
极远距离
1.297367E-5 中风险 0.57
CDM_260905-114505-639505-992521
2026-09-05T
11:45:25+0000
1.292 km
极远距离
8.35548E-6 低风险 0.53
CDM_260905-070205-639505-992521
2026-09-05T
07:02:56+0000
2.239 km
极远距离
1.704365E-6 低风险 0.4
CDM_260905-131905-639505-992521
2026-09-05T
13:19:34+0000
2.442 km
极远距离
1.437038E-6 低风险 0.38